CAPE
89 30 15 8 0 0 24 352 803 1042 1148 1304 1664 1836 1944 2022 2070 2171 2262 2350 2422 2444 2524 2520 2598 2681 2757 2754 2704 2598 2613 2453 2445 2316 1993 1463 1231 1078 726 571 718 499
124 83 182 30 3 20 0 86 420 882 1037 1158 1376 1615 1802 1890 1948 2026 2141 2240 2424 2520 2442 2497 2434 2404 2511 2577 2588 2555 2555 2475 2412 2315 2133 1796 1520 1446 1336 1262 967 350
147 122 120 48 4 0 0 0 89 372 820 1044 1184 1376 1565 1713 1787 1860 2068 2211 2278 2410 2409 2436 2417 2272 2300 2385 2430 2528 2510 2468 2394 2382 2258 2134 1718 1650 1582 1641 1557 1208
140 144 124 113 62 4 0 0 0 42 229 512 903 1104 1295 1438 1580 1706 1958 2713 2246 2319 2354 2387 2347 2220 2220 2306 2331 2382 2430 2416 2424 2288 2422 2237 2010 1854 1832 1794 1973 1817
152 130 141 147 111 57 0 0 0 0 64 279 523 910 1351 1431 1567 1657 1914 2301 2308 2265 2286 2327 2302 2227 2222 2262 2218 2279 2294 2366 2303 2269 2328 2341 2185 2096 2009 1889 1930 1979
208 145 169 144 141 94 0 0 0 0 15 121 349 864 1143 1288 1507 1664 1881 2096 2319 2270 2270 2318 2300 2269 2263 2283 2205 2087 2246 2336 2299 2238 2252 2309 2274 2191 2230 2219 2040 1999
244 146 97 108 111 109 37 0 0 0 0 116 367 624 1018 1226 1391 1619 1778 2002 2297 2398 2303 2320 2356 2328 2316 2341 2329 2040 2019 2203 2209 2151 2218 2224 2262 2204 2251 2373 2315 2226
308 190 111 80 80 94 153 2 0 0 0 135 433 561 889 1154 1306 1502 1725 1857 2148 2355 2360 2289 2316 2340 2353 2377 2426 2294 2122 2023 2108 2157 2172 2215 2149 2291 2241 2360 2416 2336
391 335 191 84 64 68 137 89 0 0 0 17 296 584 915 1068 1207 1361 1560 1717 1939 2198 2310 2300 2322 2336 2355 2393 2465 2512 2286 2106 2116 2156 2236 2252 2169 2276 2268 2267 2342 2377
452 432 316 194 95 67 77 118 78 0 0 0 41 391 830 1124 1182 1270 1386 1527 1702 1959 2131 2257 2293 2322 2348 2378 2448 2531 2529 2323 2107 2113 2179 2247 2296 2311 2296 2302 2348 2359
463 455 424 343 243 146 90 83 112 113 32 0 0 57 500 934 1230 1260 1306 1377 1517 1675 1868 2072 2210 2240 2274 2326 2381 2429 2476 2433 2292 2144 2138 2192 2224 2253 2492 2414 2428 2448
521 480 483 428 356 276 192 111 101 129 173 157 0 0 47 467 974 1184 1274 1278 1392 1504 1609 1798 2008 2114 2164 2216 2250 2257 2259 2280 2278 2226 2132 2183 2163 2094 2225 2408 2468 2535
525 547 545 536 487 389 298 218 125 91 130 272 281 53 3 29 324 836 1184 1214 1244 1333 1433 1552 1730 1895 2040 2106 2159 2160 2151 2166 2131 2178 2232 2220 2231 2222 2142 2159 2221 2310
559 562 590 610 618 636 625 624 339 150 111 127 342 376 203 65 38 190 578 1029 1126 1160 1248 1351 1476 1652 1819 1964 2088 2147 2148 2157 2181 2230 2250 2271 2300 2349 2307 2207 2208 2217
547 577 589 643 680 700 754 768 780 729 673 509 196 339 423 360 191 90 106 350 715 946 1050 1149 1264 1379 1570 1739 1946 2080 2161 2191 2206 2238 2280 2323 2328 2328 2358 2406 2344 2278
828 836 625 629 697 760 816 868 899 917 917 867 777 667 405 500 460 346 195 158 263 515 748 892 1048 1172 1331 1328 1500 1871 2073 2111 2216 2269 2289 2346 2392 2373 2302 2325 2407 2432
773 897 915 808 707 759 858 920 975 1018 1043 1052 1013 948 859 711 547 548 491 372 257 270 448 682 839 932 982 1103 1257 1416 1764 2026 2167 2226 2307 2372 2342 2422 2382 2291 2218 2363
728 922 954 873 755 822 908 973 1028 1117 1131 1180 1182 1159 1142 1040 921 734 583 573 487 390 370 480 666 715 774 904 1058 1225 1396 1848 2048 2141 2238 2268 2307 2344 2381 2352 2317 2228
819 792 756 813 907 993 1032 1126 1168 1237 1258 1308 1311 1310 1296 1289 1250 1122 969 743 571 549 444 440 527 393 602 776 896 1047 1239 1464 1928 2025 2104 2176 2262 2318 2350 2413 2429 2394
947 942 980 990 1095 1204 1277 1363 1374 1426 1430 1447 1466 1478 1464 1460 1439 1391 1350 1219 1037 759 576 517 494 332 0 685 809 931 1082 1269 1604 1937 2013 2062 2136 2223 2249 2334 2350 2347
1108 1128 1173 1185 1265 1410 1490 1549 1554 1555 1580 1585 1614 1650 1639 1660 1643 1588 1580 1547 1463 1366 1158 889 561 247 0 0 721 854 964 1104 1264 1684 1880 1962 2044 2086 2133 2242 2295 2253
1267 1320 1338 1364 1464 1626 1718 1750 1748 1721 1811 1882 1954 1977 2014 2030 1976 1920 1839 1816 1776 1685 1612 1460 1186 884 282 0 211 755 882 999 1080 1356 1687 1820 1919 1947 2044 2087 2207 2244
1522 1462 1509 1594 1657 1832 1923 1942 1921 1808 1953 2033 2132 2233 2274 2338 2315 2312 2204 2110 1973 1895 1736 1603 1498 1322 1079 750 0 28 762 890 964 1110 1377 1636 1768 1873 1943 2032 2084 2138
2181 2072 1998 1743 1821 1976 2058 2080 2096 2058 2170 2253 2211 2279 2328 2403 2484 2541 2536 2471 2341 2174 2052 1811 1610 1413 1234 1007 678 51 466 705 802 898 1114 1380 1595 1738 1820 1876 1944 2289
2478 2538 2243 2234 1972 2089 2170 2201 2241 2296 2353 2384 2395 2426 2446 2480 2500 2588 2640 2676 2675 2584 2366 2122 1822 1541 1308 1123 906 663 208 588 668 776 1002 1206 1407 1569 1689 1806 1823 2170
2405 2559 2633 2610 2501 2345 2364 2444 2486 2505 2530 2512 2516 2532 2524 2541 2585 2594 2682 2736 2733 2777 2766 2594 2243 1864 1502 1268 1087 880 670 546 624 765 996 1111 1275 1431 1560 1610 1731 1771
Wind_Speed
nan nan nan nan nan nan nan 6 7 7 8 8 9 9 9 10 9 8 8 8 8 9 9 9 9 9 10 10 9 10 9 9 10 10 9 9 9 7 7 5 6 6
2 nan 5 nan nan nan nan nan 7 7 7 7 9 9 10 10 9 9 8 8 8 8 8 8 8 8 9 9 8 8 9 9 9 11 10 9 9 8 7 6 5 6
4 4 3 nan nan nan nan nan nan 8 7 7 8 8 9 9 9 9 8 7 8 8 8 8 7 7 7 8 8 8 8 8 9 10 10 9 9 8 9 8 7 5
5 4 4 4 nan nan nan nan nan nan 9 8 7 7 8 8 8 7 8 7 7 7 8 7 7 7 7 7 8 9 9 9 10 10 10 11 11 9 9 9 9 8
7 7 7 7 7 nan nan nan nan nan nan 7 7 7 6 6 6 6 6 7 6 6 7 7 7 7 7 8 8 9 10 10 10 10 10 11 11 11 10 9 8 8
11 9 8 7 7 nan nan nan nan nan nan 6 6 6 5 4 4 4 4 5 6 6 6 6 6 7 8 8 9 9 10 10 11 10 10 11 12 12 12 10 9 8
12 12 nan 10 8 6 nan nan nan nan nan 6 8 6 5 4 4 3 4 4 4 5 5 5 6 7 8 9 9 9 10 10 11 11 11 12 13 13 13 12 10 8
13 14 13 nan nan nan 7 nan nan nan nan 8 6 6 6 5 3 5 5 4 4 3 4 4 5 6 8 9 9 9 9 12 12 11 12 12 14 12 12 13 12 10
16 16 16 nan nan nan 9 nan nan nan nan nan 7 7 7 6 5 5 4 4 3 4 4 5 5 6 8 8 9 9 9 10 10 10 11 11 12 11 11 12 12 10
15 16 15 15 nan nan nan 10 nan nan nan nan nan 9 8 7 6 5 6 4 4 4 4 5 5 7 8 9 9 9 9 8 9 9 10 10 10 10 10 10 9 8
15 16 15 13 14 17 nan nan 13 14 nan nan nan nan 9 9 8 8 7 6 7 6 6 6 6 7 8 9 10 10 9 9 8 8 8 8 8 7 8 8 8 7
15 16 14 14 14 17 17 17 16 14 14 15 nan nan nan 11 9 10 8 7 7 7 6 6 7 8 8 9 10 10 9 9 8 8 8 8 7 6 6 7 7 6
14 15 16 17 16 17 20 20 19 nan 17 16 16 nan nan nan 12 10 10 10 9 9 8 8 8 9 10 10 11 11 9 9 8 8 8 8 7 7 6 5 5 5
13 15 17 18 19 20 20 20 20 19 18 18 19 17 15 nan nan 13 13 14 13 11 9 10 9 10 10 11 12 12 11 10 10 9 9 8 8 7 7 6 5 4
14 16 19 20 21 22 21 20 20 20 21 21 20 19 19 18 16 nan 15 13 13 12 11 11 10 9 11 12 13 13 13 12 11 10 9 9 9 8 7 6 6 5
14 16 18 20 21 21 21 21 21 22 22 21 20 20 20 20 19 17 16 14 13 13 13 12 10 11 9 7 10 14 15 14 13 12 10 10 9 9 8 6 5 6
14 14 16 17 19 21 22 22 21 22 22 21 21 21 21 21 21 18 16 16 15 14 12 12 12 12 7 8 8 8 14 14 13 12 12 11 10 9 8 8 8 6
14 14 15 15 17 18 20 21 21 21 21 21 21 20 21 22 20 18 17 17 18 17 14 12 12 11 9 8 8 8 11 14 16 16 14 12 11 10 10 10 9 8
16 15 14 14 15 17 18 21 21 20 20 20 20 21 23 22 19 18 18 18 17 16 13 13 13 13 12 10 9 9 9 12 18 17 16 14 13 12 12 12 11 11
17 16 15 14 15 16 18 18 19 19 20 21 22 23 22 20 19 18 18 18 17 16 15 14 13 14 nan 13 11 10 11 13 17 18 17 16 14 14 14 13 12 12
18 17 15 15 16 16 17 17 17 18 19 21 23 22 21 20 20 19 18 18 17 17 17 14 13 12 nan nan 13 13 13 15 18 19 19 17 16 15 12 13 13 14
20 18 17 17 17 17 16 15 16 18 18 20 21 22 22 22 22 20 19 18 18 17 17 12 14 13 15 nan 15 15 17 21 18 17 18 17 17 15 16 15 15 15
26 22 20 19 19 17 15 14 15 17 18 22 21 21 22 22 21 21 20 20 19 18 16 14 14 15 16 15 nan nan 22 23 20 18 17 17 17 18 18 19 18 17
30 26 23 21 21 17 16 15 15 16 17 20 19 20 20 20 21 21 21 21 20 17 17 17 16 16 17 16 17 nan 22 21 20 19 17 16 18 20 22 22 18 14
40 31 25 23 21 19 18 16 16 15 15 17 18 19 19 21 21 21 21 21 21 19 16 15 17 17 19 18 20 23 23 20 20 20 18 16 18 20 22 24 23 21
43 41 34 26 22 21 20 18 18 19 18 18 16 17 17 19 19 21 19 21 21 20 20 18 15 17 20 20 22 25 26 23 22 20 17 16 18 20 22 23 24 25
Wind_Direction
nan nan nan nan nan nan nan 154 152 148 149 153 155 153 155 152 161 160 162 165 156 153 152 155 161 162 165 167 164 169 171 165 165 170 166 172 171 173 168 178 173 176
199 nan 184 nan nan nan nan nan 152 148 145 148 150 159 157 159 152 154 158 161 160 153 154 158 165 166 170 171 173 176 174 182 172 184 176 168 168 171 163 164 170 175
210 199 198 nan nan nan nan nan nan 153 151 155 162 161 162 163 156 151 153 156 154 154 154 157 165 168 172 176 181 181 182 186 180 188 186 170 179 174 169 176 178 171
216 208 202 193 nan nan nan nan nan nan 172 175 153 168 178 173 168 160 153 153 157 154 155 160 155 167 175 182 189 186 186 183 184 196 188 188 185 185 182 183 183 182
224 216 206 204 201 nan nan nan nan nan nan 164 177 184 187 180 179 171 167 162 166 164 167 155 162 166 179 184 188 190 190 183 191 198 194 189 192 194 193 199 191 181
212 218 221 220 216 nan nan nan nan nan nan 177 165 195 189 189 181 178 175 170 174 176 169 167 170 174 183 192 190 187 191 187 192 203 197 193 195 199 198 203 201 183
218 218 nan 220 220 219 nan nan nan nan nan 186 200 187 202 199 185 179 184 180 186 181 173 171 172 182 188 195 193 187 188 189 197 202 201 198 204 204 202 202 204 197
223 220 220 nan nan nan 221 nan nan nan nan 220 208 193 207 199 183 193 193 204 200 189 178 181 180 182 194 194 192 188 186 194 198 202 201 203 213 209 211 205 205 205
225 223 223 nan nan nan 218 nan nan nan nan nan 223 216 214 204 197 200 203 209 201 194 195 193 185 191 197 192 184 185 187 191 198 202 202 207 213 213 215 216 207 202
225 225 228 224 nan nan nan 222 nan nan nan nan nan 228 227 215 210 210 217 212 207 205 205 201 203 198 199 189 181 184 182 184 191 194 195 197 203 210 214 221 216 204
225 226 225 227 223 220 nan nan 223 227 nan nan nan nan 230 228 215 220 220 217 212 217 210 210 206 210 201 193 188 186 182 182 180 182 180 179 184 197 204 214 213 207
223 225 223 222 224 223 226 226 224 225 227 227 nan nan nan 232 228 222 222 221 218 217 217 209 213 211 202 195 195 194 190 184 182 177 173 173 173 176 189 202 195 198
216 220 221 221 221 221 224 225 224 nan 224 226 232 nan nan nan 231 227 220 224 221 223 221 221 219 218 207 202 200 198 194 189 185 179 178 178 173 171 176 182 182 182
206 211 215 219 221 222 224 225 225 225 224 225 230 232 233 nan nan 232 226 226 225 224 222 224 226 223 216 207 206 204 202 196 192 188 183 179 179 179 179 181 185 183
206 207 209 214 220 223 225 226 227 227 228 228 228 228 229 231 232 nan 232 230 228 228 227 228 227 226 223 218 213 210 206 202 199 194 191 187 184 183 189 190 191 197
208 209 212 215 218 221 225 227 227 228 231 232 232 231 231 233 233 234 234 235 234 231 229 226 223 225 231 246 231 218 216 209 207 202 199 196 191 193 193 198 200 206
215 214 216 217 219 220 223 226 228 228 230 232 235 236 236 236 237 237 236 235 238 237 232 223 220 223 247 256 249 242 226 218 214 209 209 205 201 202 198 206 209 214
224 225 222 219 222 222 225 227 228 228 229 231 233 237 237 239 240 239 238 237 237 238 235 226 219 225 249 257 259 254 240 226 222 217 217 214 211 208 206 211 213 220
229 230 230 227 226 226 227 229 230 229 229 230 232 234 237 239 240 240 240 240 241 242 238 232 221 233 248 256 258 260 258 240 225 223 220 218 218 216 215 215 219 222
231 231 233 233 232 231 232 233 233 232 231 231 231 235 238 238 239 239 238 240 242 243 240 234 230 238 nan 259 259 264 263 252 229 229 225 221 220 223 222 222 225 229
233 233 234 236 238 239 239 239 239 235 235 235 235 237 239 240 241 240 239 238 239 240 238 236 233 252 nan nan 267 270 269 258 235 232 229 224 224 227 227 228 228 230
230 233 234 237 241 243 245 246 244 243 242 241 238 236 236 237 237 238 239 239 239 240 239 236 238 263 271 nan 278 273 275 254 245 238 233 227 225 227 231 232 231 232
221 227 230 235 240 244 247 249 250 248 245 243 241 240 240 240 240 241 240 241 243 245 244 237 235 256 274 281 nan nan 265 254 252 247 241 234 227 228 230 234 237 236
220 224 228 234 238 243 245 246 248 248 249 250 248 247 246 246 244 242 243 244 248 250 251 245 241 253 274 279 286 nan 279 265 257 257 252 246 237 234 233 233 237 248
212 217 225 230 235 238 238 242 246 250 251 252 250 249 247 245 245 244 246 248 250 253 261 259 249 256 277 284 289 288 282 264 262 258 256 255 252 246 243 239 237 241
214 211 213 221 229 232 234 237 240 242 247 252 252 252 253 252 251 249 250 250 253 256 256 259 259 258 270 288 289 291 294 277 265 263 259 261 257 254 250 247 244 241